Weather History for Soldotna, AK

Change the Weather History Date:

Wednesday, December 12, 2012

  Actual Average Record
Temperature  
Mean Temperature 28 °F -  
Max Temperature 33 °F 24 °F 43 °F (1963)
Min Temperature 24 °F 9 °F -31 °F (1956)
Degree Days  
Heating Degree Days 36    
Moisture  
Dew Point 26 °F    
Average Humidity 92    
Maximum Humidity 100    
Minimum Humidity 74    
Precipitation  
Precipitation 0.00 in - - ()
Sea Level Pressure  
Sea Level Pressure 29.33 in    
Wind  
Wind Speed 4 mph (WSW)    
Max Wind Speed 15 mph    
Max Gust Speed 24 mph    
Visibility 7 miles    
Events      
Averages and records for this station are not official NWS values.
T = Trace of Precipitation, MM = Missing Value Source: NWS Daily Summary

Daily Weather History Graph

Daily Weather History Graph

Search for Another Location

Airport:

Trip Planner

Search our weather history database for the weather conditions in past years. The results will help you decide how hot, cold, wet, or windy it might be!

Date:

Astronomy

Dec. 12, 2012 Rise Set
Actual Time 10:03 AM AKST 3:53 PM AKST
Civil Twilight 9:04 AM AKST 4:51 PM AKST
Nautical Twilight 8:06 AM AKST 5:49 PM AKST
Astronomical Twilight 7:14 AM AKST 6:41 PM AKST
Moon 9:12 AM AKST (12/12) 3:46 PM AKST (12/12)
Length of Visible Light 7h 47m
Length of Day
5h 49m
Waning Crescent, 0% of the Moon is Illuminated
Dec 12
Waning Crescent
Dec 12
New
Dec 19
First Quarter
Dec 28
Full
Jan 4
Last Quarter

Hourly Weather History & Observations

Time (AKST) Temp. Windchill Dew Point Humidity Pressure Visibility Wind Dir Wind Speed Gust Speed Precip Events Conditions
12:16 AM 26.6 °F 22.6 °F 24.8 °F 93% 29.57 in 4.0 mi ENE 3.5 mph - N/A   Overcast
12:36 AM 26.6 °F 22.6 °F 24.8 °F 93% 29.57 in 10.0 mi East 3.5 mph - N/A   Overcast
12:56 AM 26.6 °F 22.6 °F 24.8 °F 93% 29.55 in 7.0 mi East 3.5 mph - N/A   Overcast
1:16 AM 26.6 °F - 26.6 °F 100% 29.54 in 7.0 mi Calm Calm - N/A   Overcast
1:36 AM 26.6 °F - 26.6 °F 100% 29.53 in 10.0 mi Calm Calm - N/A   Overcast
1:56 AM 26.6 °F - 26.6 °F 100% 29.52 in 10.0 mi Calm Calm - N/A   Overcast
2:16 AM 26.6 °F - 19.4 °F 74% 29.51 in 9.0 mi Calm Calm - N/A   Overcast
2:36 AM 26.6 °F - 24.8 °F 93% 29.50 in 10.0 mi Calm Calm - N/A   Overcast
2:56 AM 26.6 °F - 24.8 °F 93% 29.49 in 7.0 mi Calm Calm - N/A   Overcast
3:36 AM 26.6 °F 22.6 °F 24.8 °F 93% 29.47 in 10.0 mi East 3.5 mph - N/A   Overcast
3:56 AM 26.6 °F 22.6 °F 24.8 °F 93% 29.46 in 10.0 mi East 3.5 mph - N/A   Overcast
4:16 AM 26.6 °F - 24.8 °F 93% 29.44 in 10.0 mi Calm Calm - N/A   Overcast
4:36 AM 26.6 °F 22.6 °F 24.8 °F 93% 29.43 in 10.0 mi ENE 3.5 mph - N/A   Overcast
4:56 AM 26.6 °F - 24.8 °F 93% 29.42 in 10.0 mi Calm Calm - N/A   Mostly Cloudy
5:16 AM 26.6 °F - 24.8 °F 93% 29.40 in 10.0 mi Calm Calm - N/A   Overcast
5:36 AM 26.6 °F - 24.8 °F 93% 29.39 in 10.0 mi Calm Calm - N/A   Overcast
5:56 AM 26.6 °F - 24.8 °F 93% 29.38 in 10.0 mi Calm Calm - N/A   Overcast
6:16 AM 26.6 °F - 24.8 °F 93% 29.37 in 10.0 mi Calm Calm - N/A   Overcast
6:36 AM 28.4 °F - 26.6 °F 93% 29.36 in 10.0 mi Calm Calm - N/A   Overcast
6:56 AM 28.4 °F - 26.6 °F 93% 29.35 in 10.0 mi Calm Calm - N/A   Overcast
7:16 AM 28.4 °F 22.2 °F 26.6 °F 93% 29.34 in 10.0 mi West 5.8 mph - N/A   Overcast
7:36 AM 26.6 °F 18.2 °F 26.6 °F 100% 29.34 in 10.0 mi West 8.1 mph - N/A   Overcast
7:56 AM 26.6 °F 20.0 °F 26.6 °F 100% 29.33 in 6.0 mi West 5.8 mph - N/A   Overcast
8:16 AM 26.6 °F 22.6 °F 24.8 °F 93% 29.32 in 5.0 mi WSW 3.5 mph - N/A   Overcast
8:36 AM 26.6 °F 20.0 °F 26.6 °F 100% 29.32 in 7.0 mi West 5.8 mph - N/A   Overcast
8:56 AM 26.6 °F 20.0 °F 24.8 °F 93% 29.31 in 8.0 mi West 5.8 mph - N/A   Overcast
9:16 AM 24.8 °F 17.9 °F 24.8 °F 100% 29.32 in 10.0 mi West 5.8 mph - N/A   Overcast
9:36 AM 24.8 °F 20.5 °F 24.8 °F 100% 29.31 in 9.0 mi West 3.5 mph - N/A   Overcast
9:56 AM 24.8 °F 20.5 °F 24.8 °F 100% 29.30 in 8.0 mi West 3.5 mph - N/A   Overcast
10:16 AM 24.8 °F - 24.8 °F 100% 29.29 in 1.2 mi Calm Calm - N/A   Overcast
10:36 AM 24.8 °F 20.5 °F 24.8 °F 100% 29.30 in 1.5 mi WSW 3.5 mph - N/A   Overcast
10:56 AM 24.8 °F 19.1 °F 24.8 °F 100% 29.30 in 1.0 mi West 4.6 mph - N/A   Overcast
11:16 AM 24.8 °F 19.1 °F 24.8 °F 100% 29.29 in 0.8 mi West 4.6 mph - N/A   Overcast
11:36 AM 26.6 °F 21.2 °F 26.6 °F 100% 29.29 in 0.8 mi West 4.6 mph - N/A   Overcast
11:56 AM 26.6 °F 22.6 °F 26.6 °F 100% 29.29 in 1.0 mi NW 3.5 mph - N/A   Overcast
12:16 PM 26.6 °F 19.1 °F 24.8 °F 93% 29.29 in 1.2 mi WSW 6.9 mph - N/A   Overcast
12:36 PM 26.6 °F 21.2 °F 26.6 °F 100% 29.29 in 1.2 mi West 4.6 mph - N/A   Overcast
12:56 PM 26.6 °F 22.6 °F 26.6 °F 100% 29.29 in 1.0 mi WNW 3.5 mph - N/A   Overcast
1:16 PM 28.4 °F 22.2 °F 28.4 °F 100% 29.29 in 1.2 mi WNW 5.8 mph - N/A   Overcast
1:36 PM 26.6 °F 20.0 °F 24.8 °F 93% 29.28 in 0.8 mi WNW 5.8 mph - N/A   Overcast
1:56 PM 26.6 °F 21.2 °F 26.6 °F 100% 29.27 in 1.0 mi SW 4.6 mph - N/A   Overcast
2:16 PM 28.4 °F 23.3 °F 26.6 °F 93% 29.27 in 2.5 mi West 4.6 mph - N/A   Overcast
2:36 PM 26.6 °F 19.1 °F 26.6 °F 100% 29.27 in 4.0 mi WNW 6.9 mph - N/A   Overcast
2:56 PM 26.6 °F 21.2 °F 26.6 °F 100% 29.27 in 2.5 mi SW 4.6 mph - N/A   Overcast
3:16 PM 28.4 °F 24.6 °F 26.6 °F 93% 29.26 in 0.8 mi North 3.5 mph - N/A   Overcast
3:36 PM 28.4 °F 23.3 °F 26.6 °F 93% 29.26 in 0.2 mi WSW 4.6 mph - N/A   Overcast
3:56 PM 28.4 °F 22.2 °F 26.6 °F 93% 29.25 in 0.2 mi WSW 5.8 mph - N/A   Overcast
4:16 PM 28.4 °F 22.2 °F 26.6 °F 93% 29.25 in 1.0 mi West 5.8 mph - N/A   Overcast
4:36 PM 28.4 °F 23.3 °F 26.6 °F 93% 29.25 in 8.0 mi WNW 4.6 mph - N/A   Scattered Clouds
4:56 PM 24.8 °F 20.5 °F 23.0 °F 93% 29.25 in 0.2 mi SW 3.5 mph - N/A   Overcast
5:16 PM 24.8 °F 20.5 °F 21.2 °F 86% 29.25 in 0.2 mi South 3.5 mph - N/A   Overcast
5:36 PM 30.2 °F 21.9 °F 28.4 °F 93% 29.25 in 10.0 mi SSW 9.2 mph - N/A   Partly Cloudy
5:56 PM 33.8 °F 26.4 °F 30.2 °F 87% 29.25 in 10.0 mi SSW 9.2 mph - N/A   Clear
6:16 PM 33.8 °F 25.3 °F 30.2 °F 87% 29.25 in 10.0 mi WSW 11.5 mph 17.3 mph N/A   Clear
6:36 PM 33.8 °F 27.0 °F 30.2 °F 87% 29.25 in 10.0 mi SW 8.1 mph 16.1 mph N/A   Clear
6:56 PM 33.8 °F 27.7 °F 30.2 °F 87% 29.26 in 10.0 mi SW 6.9 mph - N/A   Clear
7:16 PM 33.8 °F 26.4 °F 30.2 °F 87% 29.25 in 10.0 mi SSW 9.2 mph - N/A   Clear
7:36 PM 33.8 °F 23.9 °F 30.2 °F 87% 29.25 in 10.0 mi SSW 15.0 mph 21.9 mph N/A   Clear
7:56 PM 33.8 °F 24.8 °F 30.2 °F 87% 29.26 in 10.0 mi SSW 12.7 mph 17.3 mph N/A   Clear
8:16 PM 33.8 °F 24.8 °F 30.2 °F 87% 29.26 in 10.0 mi SW 12.7 mph 17.3 mph N/A   Clear
8:36 PM 33.8 °F 25.8 °F 28.4 °F 81% 29.26 in 10.0 mi SSW 10.4 mph - N/A   Clear
8:56 PM 33.8 °F 25.3 °F 28.4 °F 81% 29.26 in 10.0 mi SW 11.5 mph 17.3 mph N/A   Clear
9:16 PM 33.8 °F 24.3 °F 28.4 °F 81% 29.26 in 10.0 mi SSW 13.8 mph 21.9 mph N/A   Clear
9:36 PM 33.8 °F 23.9 °F 30.2 °F 87% 29.26 in 10.0 mi SW 15.0 mph 20.7 mph N/A   Clear
9:56 PM 33.8 °F 24.8 °F 28.4 °F 81% 29.27 in 10.0 mi SSW 12.7 mph 20.7 mph N/A   Clear
10:16 PM 33.8 °F 24.3 °F 28.4 °F 81% 29.27 in 10.0 mi SSW 13.8 mph 18.4 mph N/A   Clear
10:36 PM 33.8 °F 24.3 °F 28.4 °F 81% 29.27 in 10.0 mi SW 13.8 mph 18.4 mph N/A   Clear
10:56 PM 33.8 °F 23.9 °F 28.4 °F 81% 29.27 in 10.0 mi SW 15.0 mph 24.2 mph N/A   Clear
11:16 PM 33.8 °F 24.8 °F 28.4 °F 81% 29.28 in 10.0 mi SW 12.7 mph 20.7 mph N/A   Clear
11:36 PM 33.8 °F 27.0 °F 28.4 °F 81% 29.27 in 10.0 mi SSW 8.1 mph 17.3 mph N/A   Clear
11:56 PM 33.8 °F 28.6 °F 28.4 °F 81% 29.28 in 10.0 mi SW 5.8 mph 16.1 mph N/A   Clear